Location: Star Dogged Moon Observatory
(29.7756°N, 82.0783°W)
Time: 04:44:13
(UTC-04:00)

Amateur Radio Satellites - All Passes

Search period start: 25 October 2014 04:14
Search period end: 26 October 2014 04:14
Location: Star Dogged Moon Observatory, 29.7756°N, 82.0783°W

Satellite Date Start Highest point End Downlink Frequencies (MHz)
Time Altitude Azimuth
Gurwin Techsat 1B 25 Oct 04:30:35 04:35:49 62° 285° (WNW) 04:41:02 435.225 FM
TMSAT-1 25 Oct 04:41:41 04:46:56 66° 285° (WNW) 04:52:10 436.925 FM
AO-27 25 Oct 04:57:09 05:00:20 17° 293° (WNW) 05:03:31 436.795 MHz FM
JAS-2 25 Oct 05:17:58 05:20:47 12° 90° (E) 05:23:34 435.800 - 435.900 CW/SSB, 435.910 FM
AO-7 25 Oct 05:22:15 05:30:22 55° 103° (ESE) 05:38:28 29.400 - 29.500 MHz
Uosat F 25 Oct 05:23:16 05:27:58 39° 99° (E) 05:32:38 435.120 FM
Sapphire 25 Oct 05:23:33 05:27:50 24° 302° (WNW) 05:32:09 437.095 MHz 1200 baud AX-25 AFSK
PCSat 25 Oct 05:48:00 05:50:41 14° 307° (NW) 05:53:23 145.825 MHz
OPAL 25 Oct 06:04:32 06:09:43 79° 256° (WSW) 06:14:51 ?
PANSAT 25 Oct 06:05:28 06:07:38 15° 155° (SSE) 06:09:49 not established
STRAND 1 25 Oct 06:15:57 06:16:10 10° 64° (ENE) 06:16:23 ?
Hamsat 25 Oct 06:26:08 06:29:18 21° 96° (E) 06:32:29 145.90 MHz
RS-15 25 Oct 06:42:56 06:51:43 25° 46° (NE) 07:00:43 29.354 - 29.394 USB, Beacon 29.352 USB
JAS-2 25 Oct 06:58:34 07:06:28 85° 103° (ESE) 07:14:10 435.800 - 435.900 CW/SSB, 435.910 FM
Uosat F 25 Oct 07:03:02 07:06:23 18° 292° (WNW) 07:09:44 435.120 FM
Saudisat 1A 25 Oct 07:09:47 07:13:31 28° 111° (ESE) 07:17:17 436.775 MHz
AO-7 25 Oct 07:15:58 07:22:37 28° 297° (WNW) 07:29:16 29.400 - 29.500 MHz
PANSAT 25 Oct 07:43:45 07:47:23 43° 166° (SSE) 07:51:02 not established
STRAND 1 25 Oct 07:49:34 07:54:40 72° 258° (WSW) 07:59:48 ?
Hamsat 25 Oct 08:01:50 08:05:07 23° 288° (WNW) 08:08:25 145.90 MHz
JAS-2 25 Oct 08:46:00 08:50:27 17° 298° (WNW) 08:54:55 435.800 - 435.900 CW/SSB, 435.910 FM
Saudisat 1A 25 Oct 08:49:43 08:53:02 21° 305° (NW) 08:56:22 436.775 MHz
RS-15 25 Oct 08:53:55 09:05:14 82° 246° (WSW) 09:17:05 29.354 - 29.394 USB, Beacon 29.352 USB
SO-67 25 Oct 09:00:54 09:03:53 28° 285° (WNW) 09:06:51 435.3500 MHz FM
PANSAT 25 Oct 09:23:35 09:27:24 73° 178° (S) 09:31:13 not established
HO-68 25 Oct 09:33:24 09:39:30 30° 98° (E) 09:45:33 435.675 MHz FM
Oscar 11 25 Oct 10:18:28 10:21:31 19° 96° (E) 10:24:33 145.825 FM, Beacon 2401.500 USB
MaSat-1 25 Oct 10:40:40 10:42:58 37° 251° (WSW) 10:45:10 437.345 MHz
KITSAT 1 25 Oct 11:00:58 11:05:46 17° 102° (ESE) 11:10:34 435.175 FM
PANSAT 25 Oct 11:03:42 11:07:27 55° 191° (S) 11:11:12 not established
ZACube-1 25 Oct 11:08:31 11:12:11 29° 97° (E) 11:15:47 437.345 MHz
RS-15 25 Oct 11:11:04 11:16:03 14° 260° (W) 11:21:10 29.354 - 29.394 USB, Beacon 29.352 USB
UKube-1 25 Oct 11:12:16 11:16:39 81° 283° (WNW) 11:20:59 145.840 MHz, 145.915 MHz
HO-68 25 Oct 11:20:33 11:27:10 41° 291° (WNW) 11:33:46 435.675 MHz FM
FUNcube-1 25 Oct 11:52:42 11:56:54 72° 283° (WNW) 12:01:01 145.950 - 145.970 MHz USB
Oscar 11 25 Oct 11:54:02 11:57:36 26° 288° (WNW) 12:01:10 145.825 FM, Beacon 2401.500 USB
ISS 25 Oct 12:18:50 12:22:07 70° 132° (SE) 12:25:25 145.800 FM
Oscar 10/S400 25 Oct 12:30:45 12:57:32 42° 154° (SSE) 13:15:04 145.825 - 145.975 CW/USB, Beacon 145.810 USB
PANSAT 25 Oct 12:44:20 12:47:18 21° 202° (SSW) 12:50:15 not established
ZACube-1 25 Oct 12:45:43 12:48:17 16° 290° (WNW) 12:50:51 437.345 MHz
SO-50 25 Oct 12:51:11 12:55:32 57° 114° (ESE) 12:59:59 436.795 FM
KITSAT 1 25 Oct 12:52:13 13:00:17 75° 296° (WNW) 13:08:22 435.175 FM
PCSat 25 Oct 12:57:03 13:00:19 16° 54° (NE) 13:03:33 145.825 MHz
Oscar 16 25 Oct 13:17:28 13:20:55 18° 68° (ENE) 13:24:22 437.025 USB, Beacon 2401.1428
Uribyol 2 25 Oct 13:39:59 13:41:46 12° 65° (ENE) 13:43:33 436.500 FM
ITAMSAT 1 25 Oct 13:45:44 13:47:56 13° 66° (ENE) 13:50:08 435.822 SSB
ISS 25 Oct 13:58:24 13:59:07 11° 327° (NNW) 13:59:50 145.800 FM
Oscar 19 25 Oct 14:08:54 14:13:59 64° 75° (ENE) 14:19:04 437.125 CW, 437.150 USB
Gurwin Techsat 1B 25 Oct 14:10:12 14:11:29 11° 65° (ENE) 14:12:46 435.225 FM
UOSAT-12 25 Oct 14:11:54 14:15:57 32° 111° (ESE) 14:20:05 437.025 FM, 437.400 FM
Sapphire 25 Oct 14:16:09 14:21:36 80° 66° (ENE) 14:27:00 437.095 MHz 1200 baud AX-25 AFSK
JAS-1B 25 Oct 14:26:31 14:32:44 77° 75° (ENE) 14:38:25 435.800 - 435.900 CW/SSB
AO-27 25 Oct 14:28:35 14:33:21 38° 72° (ENE) 14:38:09 436.795 MHz FM
SO-50 25 Oct 14:34:34 14:36:25 12° 310° (NW) 14:38:18 436.795 FM
PCSat 25 Oct 14:38:44 14:44:02 56° 249° (WSW) 14:49:18 145.825 MHz
AO-Echo 25 Oct 14:44:46 14:49:34 72° 76° (ENE) 14:54:33 ?
KITSAT 1 25 Oct 14:53:13 14:56:59 14° 315° (NW) 15:00:47 435.175 FM
Oscar 16 25 Oct 14:55:05 14:59:55 40° 261° (W) 15:04:45 437.025 USB, Beacon 2401.1428
Uribyol 2 25 Oct 15:15:27 15:20:37 65° 258° (WSW) 15:25:49 436.500 FM
ITAMSAT 1 25 Oct 15:21:43 15:26:50 60° 259° (WSW) 15:32:00 435.822 SSB
Gurwin Techsat 1B 25 Oct 15:45:29 15:50:46 71° 258° (WSW) 15:56:04 435.225 FM
UOSAT-12 25 Oct 15:52:34 15:56:05 21° 306° (NW) 15:59:40 437.025 FM, 437.400 FM
Oscar 19 25 Oct 15:52:42 15:53:37 10° 267° (W) 15:54:31 437.125 CW, 437.150 USB
TMSAT-1 25 Oct 15:56:15 16:01:32 77° 258° (WSW) 16:06:51 436.925 FM
AO-27 25 Oct 16:09:17 16:12:54 19° 264° (W) 16:16:32 436.795 MHz FM
AO-7 25 Oct 16:14:46 16:22:26 44° 67° (ENE) 16:30:05 29.400 - 29.500 MHz
Uosat F 25 Oct 16:30:58 16:35:13 29° 71° (ENE) 16:39:30 435.120 FM
JAS-2 25 Oct 17:06:40 17:10:26 18° 63° (ENE) 17:14:27 435.800 - 435.900 CW/SSB, 435.910 FM
Saudisat 1A 25 Oct 17:20:43 17:25:04 56° 61° (ENE) 17:29:23 436.775 MHz
AO-7 25 Oct 18:07:58 18:15:09 33° 261° (W) 18:22:25 29.400 - 29.500 MHz
Uosat F 25 Oct 18:09:56 18:13:54 24° 263° (W) 18:17:54 435.120 FM
OPAL 25 Oct 18:20:44 18:25:29 46° 102° (ESE) 18:30:12 ?
Hamsat 25 Oct 18:48:06 18:52:18 70° 259° (W) 18:56:29 145.90 MHz
JAS-2 25 Oct 18:49:12 18:54:45 55° 261° (W) 19:01:04 435.800 - 435.900 CW/SSB, 435.910 FM
SO-67 25 Oct 19:27:23 19:30:23 29° 75° (ENE) 19:33:25 435.3500 MHz FM
HO-68 25 Oct 19:59:56 20:01:58 11° 59° (ENE) 20:04:00 435.675 MHz FM
OPAL 25 Oct 20:01:09 20:03:56 15° 295° (WNW) 20:06:42 ?
STRAND 1 25 Oct 20:06:20 20:11:28 65° 102° (ESE) 20:16:32 ?
ISS 25 Oct 20:28:41 20:31:57 55° 45° (NE) 20:35:13 145.800 FM
KITSAT 1 25 Oct 20:53:40 20:59:19 20° 50° (NE) 21:04:56 435.175 FM
RS-15 25 Oct 21:00:45 21:09:04 25° 104° (ESE) 21:17:12 29.354 - 29.394 USB, Beacon 29.352 USB
SO-50 25 Oct 21:30:18 21:32:26 13° 51° (NE) 21:34:34 436.795 FM
HO-68 25 Oct 21:41:24 21:48:33 82° 74° (ENE) 21:55:44 435.675 MHz FM
STRAND 1 25 Oct 21:48:25 21:50:01 11° 295° (WNW) 21:51:38 ?
ZACube-1 25 Oct 22:00:33 22:02:44 13° 69° (ENE) 22:04:54 437.345 MHz
UKube-1 25 Oct 22:01:50 22:05:51 38° 73° (ENE) 22:09:54 145.840 MHz, 145.915 MHz
Oscar 11 25 Oct 22:42:10 22:46:28 73° 258° (WSW) 22:50:48 145.825 FM, Beacon 2401.500 USB
FUNcube-1 25 Oct 22:42:38 22:46:57 42° 74° (ENE) 22:51:14 145.950 - 145.970 MHz USB
KITSAT 1 25 Oct 22:47:23 22:55:27 77° 247° (WSW) 23:03:28 435.175 FM
SO-50 25 Oct 23:08:33 23:13:23 66° 245° (WSW) 23:18:13 436.795 FM
RS-15 25 Oct 23:09:24 23:20:24 68° 299° (WNW) 23:31:17 29.354 - 29.394 USB, Beacon 29.352 USB
HO-68 25 Oct 23:33:50 23:36:46 13° 267° (W) 23:39:44 435.675 MHz FM
ZACube-1 25 Oct 23:34:18 23:38:42 44° 261° (W) 23:43:03 437.345 MHz
UKube-1 25 Oct 23:40:09 23:42:07 13° 265° (W) 23:44:06 145.840 MHz, 145.915 MHz
MaSat-1 26 Oct 00:10:20 00:14:30 53° 292° (WNW) 00:18:20 437.345 MHz
FUNcube-1 26 Oct 00:21:14 00:23:24 13° 266° (W) 00:25:35 145.950 - 145.970 MHz USB
UOSAT-12 26 Oct 00:26:35 00:31:16 67° 62° (ENE) 00:35:49 437.025 FM, 437.400 FM
RS-15 26 Oct 01:29:08 01:35:07 16° 323° (NW) 01:41:09 29.354 - 29.394 USB, Beacon 29.352 USB
JAS-1B 26 Oct 02:15:13 02:21:39 33° 100° (E) 02:29:05 435.800 - 435.900 CW/SSB
Oscar 19 26 Oct 02:26:55 02:31:37 37° 99° (E) 02:36:18 437.125 CW, 437.150 USB
AO-27 26 Oct 02:48:17 02:52:21 23° 96° (E) 02:56:22 436.795 MHz FM
AO-Echo 26 Oct 02:58:07 03:03:06 40° 99° (E) 03:08:02 ?
Sapphire 26 Oct 03:09:47 03:14:05 25° 106° (ESE) 03:18:23 437.095 MHz 1200 baud AX-25 AFSK
Oscar 16 26 Oct 03:12:35 03:17:40 69° 285° (WNW) 03:22:45 437.025 USB, Beacon 2401.1428
PCSat 26 Oct 03:31:13 03:36:19 45° 110° (ESE) 03:41:28 145.825 MHz
Uribyol 2 26 Oct 03:34:21 03:39:34 76° 102° (ESE) 03:44:44 436.500 FM
ITAMSAT 1 26 Oct 03:40:42 03:45:56 83° 103° (ESE) 03:51:08 435.822 SSB
Oscar 19 26 Oct 04:07:04 04:10:38 20° 291° (WNW) 04:14:13 437.125 CW, 437.150 USB
